Hourly Data Report for October 11, 2014

All times are specified in Local Standard Time (LST). Add 1 hour to adjust for Daylight Saving Time where and when it is observed.

OTTAWA INTL A
ONTARIO

45°19'00.000" N
75°40'00.000" W
114.90 m
6106001
71628
YOW

Download Data

Hourly Data (October 2014)
Hourly Data Report for October 11, 2014
Temp Definition
°C
Dew Point Temp Definition
°C
Rel Hum Definition
%
Wind Dir Definition
10's deg

Wind Spd Definition
km/h
Visibility Definition
km
Stn Press Definition
kPa
Hmdx Definition


Wind Chill Definition


Weather Definition


TIME
00:00 Legend Double Dagger 4.8 3.6 92 16 3 24.1 100.56     LegendNANA
01:00 Legend Double Dagger 5.2 4.0 92 14 5 24.1 100.56     Mostly Cloudy
02:00 Legend Double Dagger 5.1 4.2 94 4 8 24.1 100.54     LegendNANA
03:00 Legend Double Dagger 4.2 3.6 96 10 4 24.1 100.55     LegendNANA
04:00 Legend Double Dagger 2.5 2.1 97 5 8 24.1 100.55     Mainly Clear
05:00 Legend Double Dagger 2.8 2.5 98 5 6 24.1 100.58     LegendNANA
06:00 Legend Double Dagger 3.4 3.0 97 5 3 24.1 100.59     LegendNANA
07:00 Legend Double Dagger 3.9 2.6 91 1 9 24.1 100.62     Mostly Cloudy
08:00 Legend Double Dagger 5.4 3.6 88 1 3 24.1 100.68     LegendNANA
09:00 Legend Double Dagger 7.1 3.5 78 31 3 24.1 100.70     LegendNANA
10:00 Legend Double Dagger 9.1 4.0 70 36 4 24.1 100.70     Mostly Cloudy
11:00 Legend Double Dagger 10.6 2.7 58 36 7 24.1 100.69     LegendNANA
12:00 Legend Double Dagger 11.3 2.1 53 30 16 24.1 100.63     LegendNANA
13:00 Legend Double Dagger 10.8 1.9 54 29 13 24.1 100.57     Cloudy
14:00 Legend Double Dagger 10.7 3.1 59 27 13 24.1 100.56     LegendNANA
15:00 Legend Double Dagger 10.7 2.6 57 27 14 24.1 100.58     LegendNANA
16:00 Legend Double Dagger 10.5 3.3 61 26 9 24.1 100.55     Mostly Cloudy
17:00 Legend Double Dagger 8.8 3.5 69 21 8 24.1 100.59     LegendNANA
18:00 Legend Double Dagger 8.1 3.6 73 21 5 24.1 100.64     LegendNANA
19:00 Legend Double Dagger 7.8 4.2 78 22 7 24.1 100.67     Mostly Cloudy
20:00 Legend Double Dagger 7.8 4.4 79 29 7 24.1 100.72     LegendNANA
21:00 Legend Double Dagger 7.3 4.3 81 25 7 24.1 100.76     LegendNANA
22:00 Legend Double Dagger 6.1 3.8 85 25 8 24.1 100.79     Mainly Clear
23:00 Legend Double Dagger 4.5 3.3 92 24 8 24.1 100.81     LegendNANA

Notes on Data Quality.

Legend

  • E = Estimated
  • M = Missing
  • NA = Not Available
  • ‡ = Partner data that is not subject to review by the National Climate Archives
Date modified: